Satellite: PO-28
Catalog number: 22829
Epoch time:      08066.39838721
Element set:     890
Inclination:      098.3521 deg
RA of node:       032.4191 deg
Eccentricity:    0.0009895
Arg of perigee:   168.3554 deg
Mean anomaly:     191.7859 deg
Mean motion:   14.30182211 rev/day
Decay rate:        2.0e-08 rev/day^2
Epoch rev:           75343
Checksum:              321

Satellite: GO-32
Catalog number: 25397
Epoch time:      08066.74331405
Element set:     543
Inclination:      098.3783 deg
RA of node:       106.9043 deg
Eccentricity:    0.0001480
Arg of perigee:   142.3846 deg
Mean anomaly:     217.7450 deg
Mean motion:   14.23138822 rev/day
Decay rate:      -1.10e-06 rev/day^2
Epoch rev:           50164
Checksum:              281

Satellite: MO-46
Catalog number: 26548
Epoch time:      08066.41450784
Element set:      41
Inclination:      064.5569 deg
RA of node:       088.2796 deg
Eccentricity:    0.0018065
Arg of perigee:   338.0321 deg
Mean anomaly:     021.9979 deg
Mean motion:   14.83232522 rev/day
Decay rate:       -1.7e-07 rev/day^2
Epoch rev:           40257
Checksum:              315

Satellite: NO-44
Catalog number: 26931
Epoch time:      08066.50799710
Element set:     822
Inclination:      067.0518 deg
RA of node:       189.1674 deg
Eccentricity:    0.0004994
Arg of perigee:   273.2021 deg
Mean anomaly:     086.8505 deg
Mean motion:   14.29513128 rev/day
Decay rate:      -1.58e-06 rev/day^2
Epoch rev:           33573
Checksum:              319

Satellite: SO-50
Catalog number: 27607
Epoch time:      08066.30611703
Element set:     546
Inclination:      064.5605 deg
RA of node:       006.0788 deg
Eccentricity:    0.0081320
Arg of perigee:   299.7934 deg
Mean anomaly:     059.5096 deg
Mean motion:   14.71332970 rev/day
Decay rate:        7.0e-08 rev/day^2
Epoch rev:           27983
Checksum:              314

Satellite: CO-55
Catalog number: 27844
Epoch time:      08066.67393131
Element set:     251
Inclination:      098.7192 deg
RA of node:       076.3545 deg
Eccentricity:    0.0010711
Arg of perigee:   054.0648 deg
Mean anomaly:     306.1516 deg
Mean motion:   14.20564006 rev/day
Decay rate:        5.8e-07 rev/day^2
Epoch rev:           24288
Checksum:              297

Satellite: CO-57
Catalog number: 27848
Epoch time:      08066.02430989
Element set:     204
Inclination:      098.7198 deg
RA of node:       074.8310 deg
Eccentricity:    0.0010562
Arg of perigee:   059.9681 deg
Mean anomaly:     300.2537 deg
Mean motion:   14.20375496 rev/day
Decay rate:        4.3e-07 rev/day^2
Epoch rev:           24276
Checksum:              319

Satellite: AO-51
Catalog number: 28375
Epoch time:      08066.67092430
Element set:      46
Inclination:      098.0827 deg
RA of node:       096.9568 deg
Eccentricity:    0.0084764
Arg of perigee:   103.2688 deg
Mean anomaly:     257.7976 deg
Mean motion:   14.40598740 rev/day
Decay rate:        8.0e-08 rev/day^2
Epoch rev:           19364
Checksum:              354

Satellite: CO-56
Catalog number: 28941
Epoch time:      08066.77323450
Element set:     879
Inclination:      098.1047 deg
RA of node:       163.9740 deg
Eccentricity:    0.0185417
Arg of perigee:   052.3109 deg
Mean anomaly:     309.4774 deg
Mean motion:   15.51448504 rev/day
Decay rate:     2.5807e-04 rev/day^2
Epoch rev:           11413
Checksum:              326

Satellite: CP4
Catalog number: 31122
Epoch time:      08065.74102613
Element set:     278
Inclination:      098.0523 deg
RA of node:       135.1262 deg
Eccentricity:    0.0084513
Arg of perigee:   290.3553 deg
Mean anomaly:     068.8532 deg
Mean motion:   14.55094070 rev/day
Decay rate:       5.49e-06 rev/day^2
Epoch rev:            4703
Checksum:              276

Satellite: CP3
Catalog number: 31128
Epoch time:      08066.65279631
Element set:     274
Inclination:      098.0480 deg
RA of node:       134.3767 deg
Eccentricity:    0.0101996
Arg of perigee:   292.1590 deg
Mean anomaly:     066.8833 deg
Mean motion:   14.51919537 rev/day
Decay rate:       -4.9e-07 rev/day^2
Epoch rev:            4705
Checksum:              323

Satellite: LIBERT
Catalog number: 31129
Epoch time:      08066.77099536
Element set:     800
Inclination:      098.0512 deg
RA of node:       134.5243 deg
Eccentricity:    0.0101680
Arg of perigee:   291.8557 deg
Mean anomaly:     067.1844 deg
Mean motion:   14.52008871 rev/day
Decay rate:       3.36e-06 rev/day^2
Epoch rev:            4705
Checksum:              293

/EX
SB KEPS @ AMSAT  $ORB08066.W
Orbital Elements  08066.WEATHER

HR AMSAT ORBITAL ELEMENTS FOR WEATHER SATELLITES
FROM WA5QGD FORT WORTH,TX March 6, 2008
Send Subscribe/unsubscribe to KEPS at 
http://www.amsat.org/mailman/listinfo/keps
BID: ORB08066.W
TO ALL RADIO AMATEURS BT

Satellite: NOAA-10
Catalog number: 16969
Epoch time:      08066.45918813
Element set:      33
Inclination:      098.7316 deg
RA of node:       088.5939 deg
Eccentricity:    0.0013007
Arg of perigee:   118.7651 deg
Mean anomaly:     241.4846 deg
Mean motion:   14.27352146 rev/day
Decay rate:       -1.2e-07 rev/day^2
Epoch rev:           11678
Checksum:              315

